Location: Brabourne
(51.1333°N, 1.0000°E)
Time: 12:05:41
(UTC+00:00)

ADEOS Rocket - Pass Details

Date: 28 October 2021
Orbit: 858 x 1307 km, 98.8° (Epoch: 26 November)

Event Time Altitude Azimuth Distance (km) Brightness Sun altitude
Exits shadow 00:16:03 16° 357° (N) 2,671 5.6 -51.3°
Drops below altitude 10° 00:17:11 10° 354° (N) 3,046 6.0 -51.2°
Sets 00:19:46 0° 348° (NNW) 3,947 6.7 -51.1°
